Regional Weather Roundup
Issued by NWS Grand Forks, ND

Home | Current Version | Previous Version | Text Only | Print | Product List | Glossary Off
Versions: 1 2 3 4 5 6 7 8 9 10 11 12 13 14 15 16 17 18 19 20 21 22 23 24 25 26 27 28 29 30 31 32 33 34 35 36 37 38 39 40 41 42 43 44 45 46 47 48 49 50

637
ASUS43 KFGF 300910
RWRFGF
PRAIRIE TO PINES  WEATHER ROUNDUP
NATIONAL WEATHER SERVICE EASTERN NORTH DAKOTA/GRAND FORKS ND
400 AM CDT SAT APR 30 2016

 **SATELLITE DATA USED TO AUGMENT SKY COVER AT AUTOMATED STATIONS**
 *****  WEATHER ACROSS EASTERN NORTH DAKOTA  *****

CITY           SKY/WX    TMP DP  RH WIND       PRES   REMARKS
GRAND FORKS    CLEAR     39  31  72 E9        30.21R
GRAND FRKS AFB CLEAR     34  28  81 N5        30.22R
DEVILS LAKE    CLEAR     37  31  78 NE9       30.21R
FARGO          CLEAR     45  32  60 E9        30.17R
WAHPETON ARPT  SUNNY     43  32  65 E9        30.14F
$$

 ***** WEATHER ACROSS CENTRAL AND WESTERN NORTH DAKOTA  *****

CITY           SKY/WX    TMP DP  RH WIND       PRES   REMARKS
BISMARCK       CLOUDY    39  32  76 NE6       30.14R
MINOT          CLEAR     37  27  67 NW3       30.20R
JAMESTOWN      CLEAR     41  32  70 NE13      30.12S
MINOT AFB      CLEAR     40  28  62 E10       30.19S
GARRISON         N/A     43  27  53 NE10      30.16S
WILLISTON      CLEAR     43  29  57 CALM      30.18R
DICKINSON      PTCLDY    35  28  75 NE8       30.11S
HETTINGER      MOCLDY    41  34  76 N10       30.10R
$$

 *****  OTHER AIRPORT OBSERVATIONS IN OUR AREA  *****

CITY           SKY/WX    TMP DP  RH WIND       PRES   REMARKS
WALHALLA       FAIR      36  28  75 NW7       30.27R
GRAFTON AIRPOR FAIR      36  30  80 N7        30.25R
VALLEY CITY AR FAIR      41  32  70 E10       30.16R
CANDO          FAIR      36  27  69 NE10      30.24F
CAVALIER APRT  FAIR      39  32  75 N6        30.25R
GWINNER        FAIR      37  36  93 N7        30.13R
SHEYENNE NWR     N/A     37  34  88 E7        29.95S
ROLLA          FAIR      34  25  69 N5        30.25S
 ***** THE ABOVE OBSERVATIONS ARE NON NWS ARE NOT QUALITY
       CONTROLLED AND MAY MIS-REPORT RAIN FOR SNOW...
$$

  *****  WEATHER ACROSS NORTHERN MINNESOTA  *****

CITY           SKY/WX    TMP DP  RH WIND       PRES   REMARKS
FLAG ISLAND    CLEAR     43  30  61 E5        30.28R
WARROAD        PTCLDY    34  30  86 NE3       30.29R
ROSEAU         PTCLDY    36  30  80 E6        30.28R
HALLOCK        CLEAR     41  30  65 E10       30.25R
THF RVR FALLS  CLEAR     41  30  65 E9        30.24R
BAUDETTE       CLEAR     37  30  75 E3        30.27R
WASKISH        CLEAR     36  32  87 E3        30.27R
CROOKSTON      CLEAR     41  32  70 E7        30.22R
STEPHEN NDAWN    N/A     37  30  75 E6          N/A
GREENBUSH NDAW   N/A     36  32  87 E3          N/A
$$
  *****  WEATHER ACROSS CENTRAL AND WEST MINNESOTA  *****

CITY           SKY/WX    TMP DP  RH WIND       PRES   REMARKS
FOSSTON        CLEAR     37  30  75 E7        30.22S
BEMIDJI        CLEAR     37  32  83 CALM      30.23R
PARK RAPIDS    CLEAR     41  29  62 E6        30.21R
ELBOW LAKE     FAIR      43  33  68 NE10G17   30.14F
WADENA         PTCLDY    37  28  70 NE6       30.17F
DETROIT LAKES  CLEAR     43  32  65 E9        30.20S
MOORHEAD       CLEAR     45  32  61 E9        30.18R
FERGUS FALLS   CLEAR     45  32  61 E7        30.14S
MORRIS MN      CLEAR     45  34  65 E15       30.10F
STAPLES        CLEAR     37  28  70 NE5       30.17F
$$
  *****  WEATHER ELSEWHERE ACROSS MINNESOTA  *****

CITY           SKY/WX    TMP DP  RH WIND       PRES   REMARKS
DULUTH         CLEAR     36  28  73 E9        30.22R
INTRNTL FALLS  CLEAR     29  27  92 NE3       30.27R
ELY            CLEAR     34  28  80 CALM      30.25S
CLOQUET        CLEAR     34  27  75 NE7       30.21S
WHEATON        PTCLDY    43  36  75 E12       30.13F
BRAINERD       CLEAR     36  29  75 NE8       30.18F
HIBBING        CLEAR     28  26  92 CALM      30.25R
ALEXANDRIA     CLEAR     40  31  70 E9        30.15F
SAINT CLOUD    CLEAR     40  30  67 NE9       30.13F
MINNEAPOLIS    CLOUDY    44  32  62 NE7       30.11R
$$

  *****  WEATHER ACROSS SOUTH DAKOTA  *****

CITY           SKY/WX    TMP DP  RH WIND       PRES   REMARKS
SIOUX FALLS    CLOUDY    43  38  82 NE14      29.97F
BROOKINGS      MOCLDY    39  36  89 NE8       30.00F
WATERTOWN      PTCLDY    40  35  83 NE9       30.03F
HURON          CLOUDY    42  39  89 NE8       30.00F
SISSETON         N/A     41  34  76 E5        30.10S
ABERDEEN       PTCLDY    39  36  89 N8        30.07F
MITCHELL       MOCLDY    43  41  93 NE9       29.97F
PIERRE         PTCLDY    40  37  89 N12       30.00F
MOBRIDGE       PTCLDY    39  37  92 N5        30.06R
RAPID CITY     CLOUDY    40  37  89 N10       30.02F
$$

  *****  SOME WEATHER IN NEARBY STATES *****

CITY           SKY/WX    TMP DP  RH WIND       PRES   REMARKS
GLASGOW MT     CLOUDY    45  35  68 NE9       30.14R
GREAT FALLS MT CLOUDY    39  34  82 SE3       30.05R
CHEYENNE WY    LGT SNOW  30  27  88 N13       29.85F FOG     WCI  20
SCOTTSBLUFF NE LGT SNOW  33  31  92 NW6       29.92F FOG
OMAHA NE       LGT RAIN  46  44  93 E17G26    29.77F FOG
DES MOINES IA  LGT RAIN  46  41  82 E18G24    29.89F
DAVENPORT IA   CLOUDY    45  40  82 E13       30.00R
CHICAGO IL     CLOUDY    44  40  85 NE7       30.07S
EAU CLAIRE WI  CLOUDY    39  34  82 E6        30.12R
LA CROSSE WI   CLOUDY    41  37  86 S3        30.09F
$$

  *****  SOME NATIONAL WEATHER *****

CITY           SKY/WX    TMP DP  RH WIND       PRES   REMARKS
LA GUARDIA NY  CLOUDY    48  38  68 E6        30.17R
RALEIGH NC     CLOUDY    60  57  89 E5        30.07S
ATLANTA GA     CLOUDY    70  54  56 NE9       29.92S
NEW ORLEANS LA CLOUDY    75  71  87 SE6       29.81R
OKLAHOMA CITY  CLOUDY    51  50  96 NW14      29.72S
ALBUQUERQUE NM CLOUDY    46  36  68 SW7       29.88F
SALT LAKE CITY MOCLDY    48  39  71 W5        29.85F
LOS ANGELES CA MOCLDY    56  50  80 S6        29.86F
BOISE ID       CLEAR     45  37  73 NW17      29.97R
SEATTLE WA     MOCLDY    50  44  80 NE3       30.27R
$$

*** WEATHER ACROSS MANITOBA...SASKATCHEWAN AND ONTARIO ***
                ***ONTARIO***

CITY           SKY/WX    TMP DP  RH WIND       PRES   REMARKS
GERALDTON      MOCLDY    34  30  86 NE7       30.31R
THUNDER BAY    CLOUDY    36  30  80 N2        30.28F
SIOUX LOOKOUT  CLEAR     30  28  93 NE5       30.31R
TORONTO        CLEAR     37  25  60 CALM      30.18R
BIG TROUT LK   MOCLDY    27  25  93 NE2       30.39R
PICKLE LAKE    NOT AVBL
DRYDEN         CLEAR     34  30  86 E3        30.30R
KENORA         CLEAR     36  28  75 E7        30.30R
$$
                *** MANITOBA***

CITY           SKY/WX    TMP DP  RH WIND       PRES   REMARKS
BRANDON        CLEAR     37  25  60 NE12      30.28R
DAUPHIN        CLEAR     27  23  86 W7        30.32S WCI  19
ISLAND LAKE    PTCLDY    32  21  64 SE3       30.38
PILOT MOUND      N/A     36  25  64 NE10        N/A
THE PAS        CLEAR     36  28  75 SE9       30.32S
THOMPSON       PTCLDY    36  25  64 CALM      30.31S
WINNIPEG       NOT AVBL
LYNN LAKE      CLEAR     41  27  56 SW7       30.27S
$$
                ***SASKATCHEWAN***

CITY           SKY/WX    TMP DP  RH WIND       PRES   REMARKS
ESTEVAN        CLEAR     36  25  64 E8        30.23R
KINDERSLEY     CLEAR     39  27  60 SE9       30.16R
LLOYDMINSTER   CLOUDY    43  27  52 SE7       30.16R
PRINCE ALBERT  CLEAR     30  25  80 E5        30.26R
REGINA         CLEAR     41  23  48 E14       30.24S
YORKTON        CLEAR     37  27  65 SE7       30.30R
N. BATTLEFORD  CLEAR     43  23  45 E14       30.20S
LA RONGE       CLEAR     41  25  52 S5        30.25R
SASKATOON      CLEAR     41  27  56 SE10      30.25R
SWIFT CURRENT  CLOUDY    41  30  65 SE7       30.17R
$$
NOTE: THESE ARE AUTOMATED STATIONS WITH LIMITED QUALITY CONTROL
      "FAIR" INDICATES FEW OR NO CLOUDS BELOW 12,000 FEET WITH NO
      SIGNIFICANT WEATHER AND/OR OBSTRUCTIONS TO VISIBILITY.
      SKY/WX - SKY CONDITION AND SIGNIFICANT WEATHER.
      TMP - AIR TEMPERATURE.    DP   - DEWPOINT TEMPERATURE.
      RH  - RELATIVE HUMIDITY.  PRES - PRESSURE.
      HX  - HEAT INDEX.         WCI  - WIND CHILL INDEX.
$




USA.gov is the U.S. government's official web portal to all federal, state and local government web resources and services.